EHI
8 4 2 5 7 6 4 3 3 2 2 3 2 1 0 0 0 0 0 0 1 2 2 2 3 2 1 0 1 2 3 3 3 3 2 1 0 1 0 0 0 1 2
9 4 2 5 6 5 4 3 2 1 1 2 1 0 0 0 0 0 0 0 0 1 1 1 2 1 1 0 1 2 3 2 2 3 2 1 1 1 1 1 0 1 2
8 4 2 4 5 5 4 3 1 0 0 0 0 0 0 0 0 0 0 0 0 0 0 0 0 1 1 0 1 2 2 1 2 2 1 1 1 2 2 2 2 2 2
6 3 2 3 4 4 4 3 1 0 1 1 0 0 0 0 0 0 0 0 0 0 0 0 0 0 0 0 1 2 2 2 2 1 1 1 2 2 4 4 4 4 4
5 2 1 3 4 4 4 4 2 1 2 2 1 0 0 0 0 1 0 0 0 0 1 2 2 1 1 1 0 1 2 2 2 1 2 3 4 5 6 6 6 6 6
4 2 3 5 5 4 5 5 3 1 2 2 1 0 0 0 1 1 1 1 1 1 3 4 5 4 2 1 0 1 2 3 1 1 3 4 6 7 8 7 7 7 6
2 1 5 10 9 6 5 4 2 1 1 1 1 0 0 1 2 2 2 3 3 3 4 6 6 5 3 2 0 1 2 3 2 1 2 5 8 9 9 9 8 7 6
2 3 6 11 11 7 4 2 1 0 0 0 0 0 1 2 3 3 4 5 5 4 5 6 6 6 4 3 2 2 4 5 3 1 2 5 9 11 11 10 8 7 6
2 4 6 7 9 7 4 2 2 2 2 2 2 3 5 6 6 6 7 7 6 6 6 6 7 7 8 8 7 7 9 9 6 3 3 7 11 12 11 9 7 7 7
2 4 6 6 7 6 5 4 6 6 5 5 6 9 10 10 9 10 10 10 9 8 7 7 8 10 14 15 13 13 14 12 8 5 5 9 12 12 9 7 5 5 6
1 3 5 6 6 6 5 6 9 9 8 8 10 12 13 11 10 10 11 13 13 11 11 11 12 14 16 16 15 15 15 12 8 7 8 10 12 10 7 5 5 4 4
2 3 4 4 5 4 5 8 9 8 8 9 11 13 13 11 8 7 8 13 16 15 14 15 17 16 14 13 13 14 13 10 7 7 10 11 11 9 6 5 5 4 3
1 2 3 3 3 3 5 7 6 6 7 8 11 13 12 10 8 6 6 9 12 14 14 15 16 15 11 9 8 10 10 7 4 5 9 11 9 7 6 6 5 4 5
1 3 4 6 7 7 7 6 5 4 4 6 9 11 10 9 8 7 6 7 9 10 10 11 11 10 8 6 5 6 7 6 4 4 7 9 8 7 6 6 5 5 6
4 5 8 13 16 15 12 9 6 4 3 6 10 12 11 9 9 9 7 7 8 9 9 9 9 7 6 6 5 5 5 5 5 5 5 8 8 7 7 8 8 6 5
6 7 11 17 22 20 15 11 8 6 6 8 12 15 11 10 11 10 8 8 9 11 13 12 10 9 9 8 7 5 4 4 6 7 5 6 7 7 7 9 8 5 4
7 10 12 16 21 20 14 10 8 7 8 10 13 15 12 10 11 10 8 7 9 12 14 13 10 9 10 9 6 5 5 5 7 8 7 7 5 5 6 7 7 5 3
14 15 14 16 20 19 14 10 7 7 8 10 12 13 12 10 9 7 6 6 7 10 11 10 8 7 6 6 6 6 7 8 8 9 9 9 7 5 4 6 6 4 3
25 23 19 18 20 19 16 11 7 6 7 10 10 9 10 9 7 4 4 5 6 6 7 6 6 7 5 4 5 7 9 11 11 10 10 9 8 5 5 6 7 5 4
32 30 26 23 23 22 18 12 8 7 8 10 9 8 8 7 4 3 5 6 6 4 4 4 6 8 6 4 4 6 10 13 14 14 12 9 7 7 8 9 8 6 4
35 35 34 31 28 23 18 13 11 12 12 11 11 10 10 7 5 4 7 8 7 5 4 4 5 6 5 4 3 4 8 12 15 16 14 10 7 8 11 13 13 9 6
34 36 38 37 33 26 20 16 16 16 14 11 11 14 15 12 8 7 8 9 8 8 8 8 7 5 3 3 3 3 5 8 11 12 13 11 8 10 12 14 16 14 11
30 34 39 40 38 33 26 21 19 19 16 13 14 17 18 15 11 10 10 9 9 10 11 11 10 7 5 3 2 2 2 4 5 7 9 10 10 11 11 12 15 16 15
28 33 39 42 42 39 33 26 23 22 19 18 19 19 18 17 14 13 13 12 13 12 11 10 8 7 6 4 2 1 1 2 4 5 6 7 9 10 11 10 12 16 16
28 33 40 44 43 41 36 30 26 25 23 22 22 20 21 21 19 16 15 17 17 15 11 9 7 6 5 4 3 3 2 3 4 5 5 5 7 9 10 10 12 14 14
29 32 40 46 44 40 35 30 27 26 25 24 22 21 23 25 22 18 17 19 19 15 11 9 8 6 4 4 5 5 3 3 4 4 5 5 6 8 9 11 12 12 12
Wind_Speed
9 10 9 9 8 8 7 7 7 6 6 6 6 5 5 5 4 4 4 4 5 5 6 6 6 6 6 6 7 7 7 7 8 8 8 8 8 8 7 6 6 5 8
11 11 10 9 9 8 7 6 6 6 6 6 6 5 5 4 4 4 4 4 4 5 6 6 6 6 6 6 7 7 7 8 8 8 9 8 7 7 7 6 5 5 9
11 11 10 9 9 8 7 7 7 6 6 6 5 5 5 5 4 5 6 5 5 5 5 6 6 6 6 6 7 7 8 8 8 9 9 6 6 8 8 7 7 8 8
11 11 10 9 9 8 7 7 7 7 6 6 5 6 6 6 6 6 6 6 5 5 5 5 5 5 5 6 6 7 7 8 8 8 6 5 6 9 9 9 9 9 8
11 11 11 10 9 8 7 7 7 6 7 7 7 7 7 6 6 6 6 5 6 5 4 4 4 4 4 5 6 6 7 7 7 7 4 4 4 9 10 10 10 9 9
11 11 11 10 9 8 8 7 6 6 7 7 8 8 7 6 6 6 5 5 5 5 4 4 4 4 4 5 6 7 7 7 6 5 5 5 5 10 11 11 11 10 9
10 10 11 11 10 9 8 7 6 7 7 7 7 7 6 5 5 5 5 5 4 4 3 3 4 4 4 4 5 6 7 7 6 4 3 4 6 11 11 11 11 10 9
9 10 11 11 10 10 9 8 7 6 6 6 6 6 5 5 4 4 4 4 4 3 2 3 3 3 3 4 5 7 8 8 5 4 4 5 8 11 11 10 10 10 10
8 8 9 9 9 9 8 8 6 5 5 6 5 4 4 4 4 3 4 4 3 2 2 2 3 3 4 5 6 8 9 9 5 3 5 5 9 11 11 10 10 10 10
7 6 6 7 8 6 7 7 7 6 5 5 5 3 3 3 4 4 3 3 3 2 2 3 4 5 5 6 7 8 8 7 6 4 3 6 11 11 11 10 10 10 10
6 5 6 5 5 4 5 7 7 6 4 4 4 4 3 2 2 3 3 5 4 3 3 4 5 6 6 6 8 9 8 4 5 4 3 8 11 11 11 10 10 10 10
6 5 5 5 4 3 3 4 3 4 4 3 2 2 2 2 1 2 5 5 4 4 4 5 6 6 6 4 7 8 4 4 4 4 5 11 11 11 11 10 10 10 10
6 5 5 6 5 4 3 2 1 2 2 2 2 1 1 1 0 1 2 3 3 4 3 3 5 4 3 2 2 3 3 3 2 2 6 10 10 10 10 10 10 10 10
5 5 6 6 5 4 4 2 2 1 1 2 2 1 1 1 1 1 0 0 1 1 1 1 1 2 2 2 3 3 3 2 2 3 5 10 11 11 10 9 9 10 10
5 6 6 6 5 4 3 2 2 2 1 2 2 2 1 1 1 1 1 1 1 0 1 1 1 1 2 2 2 2 2 3 3 4 4 9 11 11 11 10 10 10 10
5 5 5 5 5 3 2 1 1 1 2 2 2 3 2 2 1 1 0 1 1 0 0 1 1 1 2 1 1 1 1 1 3 4 5 6 10 11 11 11 10 11 11
5 5 4 5 5 3 2 0 1 1 2 2 2 2 2 2 1 1 0 1 1 0 1 1 1 1 1 1 1 1 0 1 2 3 4 4 6 9 11 10 10 11 12
6 4 3 4 5 3 2 1 2 2 2 2 1 2 2 1 1 1 1 1 1 0 0 1 0 1 1 1 1 1 0 1 2 3 3 4 4 5 8 10 9 10 13
6 5 4 4 4 3 2 1 1 1 1 1 2 2 2 1 2 2 1 1 1 1 1 1 2 1 2 2 1 1 1 2 2 3 3 4 4 5 5 7 9 9 11
6 5 5 4 3 1 2 1 1 1 1 1 2 2 2 2 2 2 1 2 2 1 2 2 2 2 2 2 2 0 1 2 1 2 3 3 3 4 5 5 6 6 10
7 6 5 3 2 1 1 1 0 0 1 1 2 2 2 2 3 2 3 2 2 2 2 2 2 3 2 1 1 1 1 2 2 1 2 3 3 4 4 5 5 4 5
7 6 5 4 3 1 1 0 0 0 0 1 2 2 2 2 2 2 2 2 3 2 2 2 2 2 2 2 1 1 1 1 0 3 3 3 3 3 4 5 5 4 4
7 7 5 4 3 2 1 1 0 1 1 1 1 1 1 2 2 2 2 2 2 2 1 2 2 2 3 2 1 1 1 1 1 1 1 2 2 2 2 3 5 5 5
7 7 6 5 4 3 2 0 0 1 1 1 1 1 1 1 1 1 2 2 2 2 2 2 2 2 2 3 2 1 1 0 0 1 1 0 1 2 2 3 4 5 5
7 8 7 6 4 3 2 1 0 1 1 1 1 1 0 1 1 1 1 1 2 2 2 2 2 2 2 2 3 2 2 2 1 1 1 1 1 1 2 2 2 3 4
7 8 8 7 5 4 3 2 1 0 1 1 1 0 0 0 1 2 2 1 2 2 2 2 2 2 3 3 3 3 2 2 2 1 2 2 1 1 2 2 2 2 3
Wind_Direction
90 99 98 90 84 84 87 88 92 92 95 99 105 107 105 107 109 113 124 131 137 143 147 150 155 160 160 163 164 157 155 151 151 150 148 147 150 149 150 154 157 133 137
98 103 100 90 85 83 84 89 94 96 96 99 108 113 112 111 111 117 121 119 130 145 152 151 152 159 165 170 171 167 167 166 164 163 160 157 157 156 159 158 147 139 145
104 112 104 92 89 86 88 90 92 93 94 100 107 111 112 107 100 105 108 110 123 137 145 151 155 162 170 175 177 178 179 178 175 177 177 168 156 161 164 159 152 153 151
104 106 100 100 93 88 90 91 90 90 90 92 97 107 103 100 94 96 102 106 111 121 135 145 157 163 171 175 178 184 187 187 185 189 195 185 163 162 168 168 163 161 159
97 101 108 108 102 99 99 96 92 89 87 88 88 98 101 96 94 93 93 100 107 114 124 138 150 160 170 175 182 190 190 192 195 204 212 167 148 159 168 171 170 169 169
105 104 114 115 109 106 107 101 99 91 87 91 92 96 97 94 95 99 101 103 105 111 121 135 148 161 171 179 188 193 199 205 208 216 194 166 154 163 170 175 174 173 173
104 109 119 121 116 113 106 99 95 90 87 91 93 93 94 96 101 110 114 111 109 111 125 145 162 171 179 186 197 205 212 221 225 227 179 155 153 167 175 175 175 175 175
104 113 124 130 128 129 121 113 106 98 93 95 98 100 103 107 108 117 120 119 116 117 137 158 176 180 193 203 211 216 221 232 224 212 171 160 164 173 175 175 175 174 177
100 111 129 138 136 136 130 128 124 115 113 114 112 112 119 127 131 138 130 127 135 147 160 177 187 203 215 217 221 224 225 227 231 219 185 165 168 171 174 178 180 180 182
94 99 111 125 137 143 143 145 143 140 138 138 139 142 150 146 162 172 166 162 167 179 196 203 208 218 221 223 228 228 230 231 224 204 182 165 172 173 175 179 184 186 186
80 92 97 97 113 126 133 143 156 158 160 160 168 176 179 194 175 171 165 165 176 192 209 217 222 223 225 227 229 230 233 222 203 185 170 166 175 176 179 183 188 189 187
81 81 86 88 88 98 100 125 154 148 149 166 154 179 177 189 188 134 153 169 184 205 218 229 234 231 229 225 221 223 225 208 200 178 166 169 176 178 180 182 185 187 187
82 74 85 82 76 70 73 95 99 110 128 145 138 136 132 155 153 123 157 179 197 212 228 222 228 236 232 228 213 204 209 208 174 164 159 171 173 177 182 183 184 188 192
88 78 72 79 74 59 48 49 71 80 106 104 98 95 91 67 32 33 20 184 189 224 238 256 263 268 269 250 232 221 206 207 154 145 168 175 175 179 183 185 187 192 194
97 88 83 81 74 76 60 7 73 70 74 93 101 67 55 63 43 48 353 311 243 222 211 238 261 274 285 263 243 239 200 177 174 155 158 176 177 181 185 187 190 195 196
107 101 100 100 90 81 89 53 48 76 87 82 91 80 46 52 31 33 345 321 305 276 260 250 244 241 252 277 279 265 245 165 172 159 153 175 181 183 188 190 194 198 198
114 101 112 118 105 94 83 58 103 76 83 76 81 80 56 52 8 345 338 311 310 337 231 251 273 273 258 264 275 273 238 155 154 161 160 169 177 190 194 193 198 199 196
114 110 95 97 104 106 86 33 33 50 65 70 81 83 71 38 0 349 21 359 326 332 340 289 319 296 312 320 292 290 106 110 131 154 161 170 175 183 193 198 201 197 195
113 114 95 75 87 92 91 67 69 79 61 50 62 66 55 20 12 353 32 5 322 13 4 331 19 336 328 327 280 209 171 141 172 174 163 173 178 178 174 189 197 198 195
127 120 113 102 93 106 101 67 31 87 101 78 67 70 53 6 18 4 1 6 344 26 21 13 6 335 308 303 294 303 185 150 179 167 176 174 184 183 176 177 180 200 200
136 132 128 122 111 107 86 103 194 63 97 102 103 83 60 21 12 19 8 1 1 29 20 359 354 332 322 310 315 316 277 178 164 203 190 181 190 186 175 170 173 181 185
145 142 137 141 139 141 132 188 184 82 343 107 77 85 57 43 10 17 25 353 9 19 13 0 354 335 321 332 324 332 335 323 277 208 190 191 196 185 181 177 168 172 169
150 150 149 143 144 150 166 192 235 127 44 70 107 97 94 69 53 11 9 4 354 19 12 334 357 333 324 321 350 357 332 343 309 269 201 179 179 179 189 171 174 174 180
155 152 141 139 143 152 160 230 195 128 95 74 102 104 100 78 62 41 22 359 343 360 6 335 8 327 320 324 325 307 298 310 275 299 296 198 210 201 201 194 176 177 184
157 152 145 141 144 146 163 182 196 51 57 67 63 56 94 97 65 46 61 5 353 4 359 354 359 339 336 343 334 327 336 334 305 271 302 309 288 232 202 197 180 180 190
154 153 149 143 149 159 173 172 157 138 17 46 48 7 305 92 46 31 48 25 17 3 2 354 338 346 351 348 340 336 342 341 331 325 306 302 295 273 241 194 188 197 209